Year,Month,Day,Hour,Minute,Value (Times are PST for temperature in C)
2005,05,30,00,00,14.00
2005,05,30,00,01,14.00
2005,05,30,00,02,14.00
2005,05,30,00,03,14.00
2005,05,30,00,05,14.00
2005,05,30,00,06,14.00
2005,05,30,00,07,14.00
2005,05,30,00,08,14.00
2005,05,30,00,09,14.00
2005,05,30,00,10,14.00
2005,05,30,00,11,14.00
2005,05,30,00,13,14.00
2005,05,30,00,14,14.00
2005,05,30,00,15,14.00
2005,05,30,00,17,13.90
2005,05,30,00,18,13.90
2005,05,30,00,19,13.90
2005,05,30,00,27,13.90
2005,05,30,00,31,13.80
2005,05,30,00,32,13.90
2005,05,30,00,33,13.80
2005,05,30,00,34,13.80
2005,05,30,00,35,13.80
2005,05,30,00,36,13.80
2005,05,30,00,37,13.80
2005,05,30,00,38,13.80
2005,05,30,00,39,13.80
2005,05,30,00,40,13.80
2005,05,30,00,41,13.80
2005,05,30,00,42,13.80
2005,05,30,00,43,13.80
2005,05,30,00,44,13.80
2005,05,30,00,45,13.80
2005,05,30,00,46,13.70
2005,05,30,00,47,13.70
2005,05,30,00,48,13.70
2005,05,30,00,49,13.70
2005,05,30,00,50,13.70
2005,05,30,00,51,13.70
2005,05,30,00,52,13.70
2005,05,30,00,53,13.70
2005,05,30,00,54,13.70
2005,05,30,00,55,13.70
2005,05,30,00,56,13.70
2005,05,30,00,57,13.70
2005,05,30,00,58,13.70
2005,05,30,00,59,13.70
2005,05,30,01,00,13.70
2005,05,30,01,01,13.70
2005,05,30,01,02,13.70
2005,05,30,01,03,13.70
2005,05,30,01,04,13.70
2005,05,30,01,05,13.70
2005,05,30,01,06,13.60
2005,05,30,01,07,13.60
2005,05,30,01,08,13.60
2005,05,30,01,09,13.60
2005,05,30,01,10,13.60
2005,05,30,01,11,13.60
2005,05,30,01,12,13.60
2005,05,30,01,13,13.60
2005,05,30,01,14,13.60
2005,05,30,01,15,13.60
2005,05,30,01,16,13.60
2005,05,30,01,17,13.60
2005,05,30,01,18,13.60
2005,05,30,01,19,13.50
2005,05,30,01,20,13.50
2005,05,30,01,21,13.50
2005,05,30,01,22,13.50
2005,05,30,01,23,13.50
2005,05,30,01,24,13.50
2005,05,30,01,25,13.50
2005,05,30,01,26,13.50
2005,05,30,01,27,13.50
2005,05,30,01,28,13.40
2005,05,30,01,29,13.40
2005,05,30,01,30,13.40
2005,05,30,01,31,13.40
2005,05,30,01,32,13.40
2005,05,30,01,33,13.30
2005,05,30,01,34,13.30
2005,05,30,01,35,13.30
2005,05,30,01,36,13.30
2005,05,30,01,37,13.30
2005,05,30,01,38,13.30
2005,05,30,01,39,13.30
2005,05,30,01,40,13.30
2005,05,30,01,41,13.30
2005,05,30,01,42,13.30
2005,05,30,01,43,13.30
2005,05,30,01,44,13.30
2005,05,30,01,45,13.30
2005,05,30,01,46,13.30
2005,05,30,01,47,13.30
2005,05,30,01,48,13.30
2005,05,30,01,49,13.30
2005,05,30,01,50,13.30
2005,05,30,01,51,13.30
2005,05,30,01,52,13.30
2005,05,30,01,53,13.20
2005,05,30,01,54,13.20
2005,05,30,01,55,13.20
2005,05,30,01,56,13.20
2005,05,30,01,57,13.10
2005,05,30,01,58,13.10
2005,05,30,01,59,13.10
2005,05,30,02,00,13.10
2005,05,30,02,01,13.10
2005,05,30,02,02,13.00
2005,05,30,02,03,13.00
2005,05,30,02,04,13.00
2005,05,30,02,05,13.00
2005,05,30,02,06,12.90
2005,05,30,02,07,12.90
2005,05,30,02,08,12.90
2005,05,30,02,09,12.90
2005,05,30,02,10,12.80
2005,05,30,02,11,12.80
2005,05,30,02,12,12.80
2005,05,30,02,13,12.80
2005,05,30,02,14,12.80
2005,05,30,02,15,12.80
2005,05,30,02,16,12.80
2005,05,30,02,17,12.80
2005,05,30,02,18,12.80
2005,05,30,02,19,12.80
2005,05,30,02,20,12.80
2005,05,30,02,21,12.80
2005,05,30,02,22,12.80
2005,05,30,02,23,12.80
2005,05,30,02,24,12.80
2005,05,30,02,25,12.80
2005,05,30,02,26,12.80
2005,05,30,02,27,12.80
2005,05,30,02,28,12.80
2005,05,30,02,29,12.80
2005,05,30,02,30,12.80
2005,05,30,02,31,12.80
2005,05,30,02,32,12.80
2005,05,30,02,33,12.80
2005,05,30,02,34,12.80
2005,05,30,02,35,12.80
2005,05,30,02,36,12.80
2005,05,30,02,37,12.80
2005,05,30,02,38,12.80
2005,05,30,02,39,12.80
2005,05,30,02,40,12.80
2005,05,30,02,41,12.80
2005,05,30,02,42,12.80
2005,05,30,02,43,12.80
2005,05,30,02,44,12.80
2005,05,30,02,45,12.80
2005,05,30,02,46,12.80
2005,05,30,02,47,12.80
2005,05,30,02,48,12.80
2005,05,30,02,49,12.80
2005,05,30,02,50,12.80
2005,05,30,02,51,12.80
2005,05,30,02,52,12.80
2005,05,30,02,53,12.80
2005,05,30,02,54,12.80
2005,05,30,02,55,12.80
2005,05,30,02,56,12.80
2005,05,30,02,57,12.80
2005,05,30,02,58,12.80
2005,05,30,02,59,12.80
2005,05,30,03,00,12.80
2005,05,30,03,01,12.80
2005,05,30,03,02,12.80
2005,05,30,03,03,12.80
2005,05,30,03,04,12.80
2005,05,30,03,05,12.80
2005,05,30,03,06,12.80
2005,05,30,03,07,12.80
2005,05,30,03,08,12.80
2005,05,30,03,09,12.80
2005,05,30,03,10,12.80
2005,05,30,03,11,12.70
2005,05,30,03,12,12.70
2005,05,30,03,13,12.70
2005,05,30,03,14,12.70
2005,05,30,03,15,12.70
2005,05,30,03,16,12.70
2005,05,30,03,17,12.70
2005,05,30,03,18,12.70
2005,05,30,03,19,12.60
2005,05,30,03,20,12.60
2005,05,30,03,21,12.60
2005,05,30,03,22,12.60
2005,05,30,03,23,12.60
2005,05,30,03,24,12.60
2005,05,30,03,25,12.50
2005,05,30,03,26,12.50
2005,05,30,03,27,12.50
2005,05,30,03,28,12.50
2005,05,30,03,29,12.50
2005,05,30,03,30,12.50
2005,05,30,03,31,12.40
2005,05,30,03,32,12.40
2005,05,30,03,33,12.40
2005,05,30,03,34,12.40
2005,05,30,03,35,12.30
2005,05,30,03,36,12.30
2005,05,30,03,37,12.30
2005,05,30,03,38,12.30
2005,05,30,03,39,12.30
2005,05,30,03,40,12.30
2005,05,30,03,41,12.30
2005,05,30,03,42,12.30
2005,05,30,03,43,12.30
2005,05,30,03,44,12.20
2005,05,30,03,45,12.20
2005,05,30,03,46,12.20
2005,05,30,03,47,12.30
2005,05,30,03,48,12.30
2005,05,30,03,49,12.30
2005,05,30,03,50,12.30
2005,05,30,03,51,12.40
2005,05,30,03,52,12.40
2005,05,30,03,53,12.40
2005,05,30,03,54,12.40
2005,05,30,03,55,12.40
2005,05,30,03,56,12.40
2005,05,30,03,57,12.50
2005,05,30,03,58,12.50
2005,05,30,03,59,12.50
2005,05,30,04,00,12.40
2005,05,30,04,01,12.40
2005,05,30,04,02,12.40
2005,05,30,04,03,12.40
2005,05,30,04,04,12.40
2005,05,30,04,05,12.40
2005,05,30,04,06,12.40
2005,05,30,04,07,12.40
2005,05,30,04,08,12.40
2005,05,30,04,09,12.40
2005,05,30,04,10,12.30
2005,05,30,04,11,12.30
2005,05,30,04,12,12.30
2005,05,30,04,13,12.30
2005,05,30,04,14,12.30
2005,05,30,04,15,12.30
2005,05,30,04,16,12.30
2005,05,30,04,17,12.30
2005,05,30,04,18,12.30
2005,05,30,04,19,12.30
2005,05,30,04,20,12.30
2005,05,30,04,21,12.30
2005,05,30,04,22,12.20
2005,05,30,04,23,12.20
2005,05,30,04,24,12.20
2005,05,30,04,25,12.20
2005,05,30,04,26,12.20
2005,05,30,04,27,12.20
2005,05,30,04,28,12.20
2005,05,30,04,29,12.10
2005,05,30,04,30,12.10
2005,05,30,04,31,12.10
2005,05,30,04,32,12.10
2005,05,30,04,33,12.10
2005,05,30,04,34,12.10
2005,05,30,04,35,12.10
2005,05,30,04,36,12.10
2005,05,30,04,37,12.10
2005,05,30,04,38,12.10
2005,05,30,04,39,12.10
2005,05,30,04,40,12.10
2005,05,30,04,41,12.10
2005,05,30,04,42,12.00
2005,05,30,04,43,12.00
2005,05,30,04,44,12.00
2005,05,30,04,45,12.00
2005,05,30,04,46,12.00
2005,05,30,04,47,12.00
2005,05,30,04,48,12.00
2005,05,30,04,49,12.00
2005,05,30,04,50,12.00
2005,05,30,04,51,12.00
2005,05,30,04,52,12.00
2005,05,30,04,53,11.90
2005,05,30,04,54,11.90
2005,05,30,04,55,11.90
2005,05,30,04,56,11.90
2005,05,30,04,57,11.90
2005,05,30,04,58,11.90
2005,05,30,04,59,11.80
2005,05,30,05,00,11.80
2005,05,30,05,01,11.80
2005,05,30,05,02,11.80
2005,05,30,05,03,11.80
2005,05,30,05,04,11.80
2005,05,30,05,05,11.80
2005,05,30,05,06,11.80
2005,05,30,05,07,11.80
2005,05,30,05,08,11.80
2005,05,30,05,09,11.80
2005,05,30,05,10,11.80
2005,05,30,05,11,11.80
2005,05,30,05,12,11.80
2005,05,30,05,13,11.80
2005,05,30,05,14,11.80
2005,05,30,05,15,11.80
2005,05,30,05,16,11.80
2005,05,30,05,17,11.80
2005,05,30,05,18,11.80
2005,05,30,05,19,11.70
2005,05,30,05,20,11.70
2005,05,30,05,21,11.70
2005,05,30,05,22,11.70
2005,05,30,05,23,11.70
2005,05,30,05,24,11.70
2005,05,30,05,25,11.70
2005,05,30,05,26,11.70
2005,05,30,05,27,11.70
2005,05,30,05,28,11.70
2005,05,30,05,29,11.70
2005,05,30,05,30,11.70
2005,05,30,05,31,11.70
2005,05,30,05,32,11.70
2005,05,30,05,33,11.70
2005,05,30,05,34,11.70
2005,05,30,05,35,11.70
2005,05,30,05,36,11.70
2005,05,30,05,37,11.70
2005,05,30,05,38,11.70
2005,05,30,05,39,11.70
2005,05,30,05,40,11.70
2005,05,30,05,41,11.70
2005,05,30,05,42,11.70
2005,05,30,05,43,11.80
2005,05,30,05,44,11.80
2005,05,30,05,45,11.80
2005,05,30,05,46,11.80
2005,05,30,05,47,11.80
2005,05,30,05,48,11.80
2005,05,30,05,49,11.80
2005,05,30,05,50,11.80
2005,05,30,05,51,11.80
2005,05,30,05,52,11.80
2005,05,30,05,53,11.80
2005,05,30,05,54,11.80
2005,05,30,05,55,11.80
2005,05,30,05,56,11.80
2005,05,30,05,57,11.80
2005,05,30,05,58,11.80
2005,05,30,05,59,11.80
2005,05,30,06,00,11.90
2005,05,30,06,01,11.90
2005,05,30,06,02,11.90
2005,05,30,06,03,11.90
2005,05,30,06,04,11.90
2005,05,30,06,05,11.90
2005,05,30,06,06,11.90
2005,05,30,06,07,11.90
2005,05,30,06,08,11.90
2005,05,30,06,09,12.00
2005,05,30,06,10,12.00
2005,05,30,06,11,12.00
2005,05,30,06,12,12.00
2005,05,30,06,13,12.00
2005,05,30,06,14,12.00
2005,05,30,06,15,12.00
2005,05,30,06,16,12.00
2005,05,30,06,17,12.10
2005,05,30,06,18,12.10
2005,05,30,06,19,12.10
2005,05,30,06,20,12.10
2005,05,30,06,21,12.20
2005,05,30,06,22,12.30
2005,05,30,06,23,12.30
2005,05,30,06,24,12.30
2005,05,30,06,25,12.40
2005,05,30,06,26,12.40
2005,05,30,06,27,12.50
2005,05,30,06,28,12.50
2005,05,30,06,29,12.60
2005,05,30,06,30,12.60
2005,05,30,06,31,12.60
2005,05,30,06,32,12.60
2005,05,30,06,33,12.60
2005,05,30,06,34,12.70
2005,05,30,06,35,12.70
2005,05,30,06,36,12.70
2005,05,30,06,37,12.70
2005,05,30,06,38,12.80
2005,05,30,06,39,12.80
2005,05,30,06,40,12.90
2005,05,30,06,41,13.00
2005,05,30,06,42,13.00
2005,05,30,06,43,13.10
2005,05,30,06,44,13.20
2005,05,30,06,45,13.30
2005,05,30,06,46,13.30
2005,05,30,06,47,13.40
2005,05,30,06,48,13.40
2005,05,30,06,49,13.50
2005,05,30,06,50,13.60
2005,05,30,06,51,13.60
2005,05,30,06,52,13.70
2005,05,30,06,53,13.70
2005,05,30,06,54,13.80
2005,05,30,06,55,13.90
2005,05,30,06,56,13.90
2005,05,30,06,57,14.00
2005,05,30,06,58,14.10
2005,05,30,06,59,14.20
2005,05,30,07,00,14.20
2005,05,30,07,01,14.20
2005,05,30,07,02,14.20
2005,05,30,07,03,14.30
2005,05,30,07,04,14.30
2005,05,30,07,05,14.40
2005,05,30,07,06,14.40
2005,05,30,07,07,14.40
2005,05,30,07,08,14.40
2005,05,30,07,09,14.40
2005,05,30,07,10,14.40
2005,05,30,07,11,14.40
2005,05,30,07,12,14.40
2005,05,30,07,13,14.50
2005,05,30,07,14,14.50
2005,05,30,07,15,14.50
2005,05,30,07,16,14.50
2005,05,30,07,17,14.60
2005,05,30,07,18,14.60
2005,05,30,07,19,14.60
2005,05,30,07,20,14.70
2005,05,30,07,21,14.70
2005,05,30,07,22,14.80
2005,05,30,07,23,14.80
2005,05,30,07,24,14.80
2005,05,30,07,25,14.80
2005,05,30,07,26,14.80
2005,05,30,07,27,14.90
2005,05,30,07,28,15.00
2005,05,30,07,29,15.00
2005,05,30,07,30,15.10
2005,05,30,07,31,15.20
2005,05,30,07,32,15.30
2005,05,30,07,33,15.30
2005,05,30,07,34,15.40
2005,05,30,07,35,15.50
2005,05,30,07,36,15.50
2005,05,30,07,37,15.60
2005,05,30,07,38,15.60
2005,05,30,07,39,15.70
2005,05,30,07,40,15.70
2005,05,30,07,41,15.80
2005,05,30,07,42,15.80
2005,05,30,07,43,15.80
2005,05,30,07,44,15.80
2005,05,30,07,45,15.80
2005,05,30,07,46,15.80
2005,05,30,07,47,15.90
2005,05,30,07,48,16.00
2005,05,30,07,49,16.10
2005,05,30,07,50,16.10
2005,05,30,07,51,16.10
2005,05,30,07,52,16.20
2005,05,30,07,53,16.20
2005,05,30,07,54,16.20
2005,05,30,07,55,16.30
2005,05,30,07,56,16.30
2005,05,30,07,57,16.30
2005,05,30,07,58,16.40
2005,05,30,07,59,16.40
2005,05,30,08,00,16.40
2005,05,30,08,01,16.40
2005,05,30,08,02,16.40
2005,05,30,08,03,16.40
2005,05,30,08,04,16.50
2005,05,30,08,05,16.60
2005,05,30,08,06,16.60
2005,05,30,08,07,16.70
2005,05,30,08,08,16.70
2005,05,30,08,09,16.70
2005,05,30,08,10,16.70
2005,05,30,08,11,16.80
2005,05,30,08,12,16.80
2005,05,30,08,13,16.90
2005,05,30,08,14,17.00
2005,05,30,08,15,17.00
2005,05,30,08,16,17.00
2005,05,30,08,17,17.00
2005,05,30,08,18,17.10
2005,05,30,08,19,17.10
2005,05,30,08,20,17.10
2005,05,30,08,21,17.20
2005,05,30,08,22,17.20
2005,05,30,08,23,17.20
2005,05,30,08,24,17.20
2005,05,30,08,25,17.20
2005,05,30,08,26,17.30
2005,05,30,08,27,17.30
2005,05,30,08,28,17.30
2005,05,30,08,29,17.30
2005,05,30,08,30,17.30
2005,05,30,08,31,17.30
2005,05,30,08,32,17.30
2005,05,30,08,33,17.30
2005,05,30,08,34,17.30
2005,05,30,08,35,17.30
2005,05,30,08,36,17.30
2005,05,30,08,37,17.40
2005,05,30,08,38,17.50
2005,05,30,08,39,17.50
2005,05,30,08,40,17.60
2005,05,30,08,41,17.60
2005,05,30,08,42,17.70
2005,05,30,08,43,17.80
2005,05,30,08,44,17.90
2005,05,30,08,45,17.90
2005,05,30,08,46,18.00
2005,05,30,08,47,18.10
2005,05,30,08,48,18.00
2005,05,30,08,49,17.90
2005,05,30,08,50,17.90
2005,05,30,08,51,17.90
2005,05,30,08,52,17.90
2005,05,30,08,53,17.90
2005,05,30,08,54,17.90
2005,05,30,08,55,17.90
2005,05,30,08,56,17.90
2005,05,30,08,57,18.00
2005,05,30,08,58,18.10
2005,05,30,08,59,18.10
2005,05,30,09,00,18.10
2005,05,30,09,01,18.10
2005,05,30,09,02,18.10
2005,05,30,09,03,18.10
2005,05,30,09,04,18.10
2005,05,30,09,05,18.10
2005,05,30,09,06,18.20
2005,05,30,09,07,18.20
2005,05,30,09,08,18.20
2005,05,30,09,09,18.20
2005,05,30,09,10,18.20
2005,05,30,09,11,18.20
2005,05,30,09,12,18.20
2005,05,30,09,13,18.10
2005,05,30,09,14,18.00
2005,05,30,09,15,17.90
2005,05,30,09,16,17.90
2005,05,30,09,17,17.70
2005,05,30,09,18,17.50
2005,05,30,09,19,17.40
2005,05,30,09,20,17.30
2005,05,30,09,21,17.30
2005,05,30,09,22,17.30
2005,05,30,09,23,17.30
2005,05,30,09,24,17.30
2005,05,30,09,25,17.30
2005,05,30,09,26,17.30
2005,05,30,09,27,17.30
2005,05,30,09,28,17.30
2005,05,30,09,29,17.30
2005,05,30,09,30,17.40
2005,05,30,09,31,17.50
2005,05,30,09,32,17.60
2005,05,30,09,33,17.70
2005,05,30,09,34,17.80
2005,05,30,09,35,17.80
2005,05,30,09,36,17.90
2005,05,30,09,37,18.00
2005,05,30,09,38,18.20
2005,05,30,09,39,18.20
2005,05,30,09,40,18.10
2005,05,30,09,41,18.10
2005,05,30,09,42,18.00
2005,05,30,09,43,17.90
2005,05,30,09,44,17.90
2005,05,30,09,45,17.90
2005,05,30,09,46,17.90
2005,05,30,09,47,17.90
2005,05,30,09,48,17.90
2005,05,30,09,49,17.80
2005,05,30,09,50,17.90
2005,05,30,09,51,17.90
2005,05,30,09,52,17.90
2005,05,30,09,53,17.80
2005,05,30,09,54,17.80
2005,05,30,09,55,17.70
2005,05,30,09,56,17.60
2005,05,30,09,57,17.60
2005,05,30,09,58,17.60
2005,05,30,09,59,17.60
2005,05,30,10,00,17.60
2005,05,30,10,01,17.60
2005,05,30,10,02,17.60
2005,05,30,10,03,17.60
2005,05,30,10,04,17.70
2005,05,30,10,05,17.60
2005,05,30,10,06,17.60
2005,05,30,10,07,17.40
2005,05,30,10,08,17.30
2005,05,30,10,09,17.30
2005,05,30,10,10,17.30
2005,05,30,10,11,17.30
2005,05,30,10,12,17.30
2005,05,30,10,13,17.30
2005,05,30,10,14,17.30
2005,05,30,10,15,17.30
2005,05,30,10,16,17.30
2005,05,30,10,17,17.30
2005,05,30,10,18,17.50
2005,05,30,10,19,17.50
2005,05,30,10,20,17.50
2005,05,30,10,21,17.50
2005,05,30,10,22,17.60
2005,05,30,10,23,17.60
2005,05,30,10,24,17.60
2005,05,30,10,25,17.50
2005,05,30,10,26,17.60
2005,05,30,10,27,17.70
2005,05,30,10,28,17.80
2005,05,30,10,29,17.90
2005,05,30,10,30,17.90
2005,05,30,10,31,17.90
2005,05,30,10,32,17.90
2005,05,30,10,33,17.90
2005,05,30,10,34,18.00
2005,05,30,10,35,17.90
2005,05,30,10,36,17.90
2005,05,30,10,37,17.90
2005,05,30,10,38,18.00
2005,05,30,10,39,18.10
2005,05,30,10,40,17.90
2005,05,30,10,41,17.80
2005,05,30,10,42,17.70
2005,05,30,10,43,17.70
2005,05,30,10,44,17.70
2005,05,30,10,45,17.80
2005,05,30,10,46,17.90
2005,05,30,10,47,18.00
2005,05,30,10,48,18.10
2005,05,30,10,49,18.30
2005,05,30,10,50,18.20
2005,05,30,10,51,18.20
2005,05,30,10,52,18.30
2005,05,30,10,53,18.40
2005,05,30,10,54,18.60
2005,05,30,10,55,18.80
2005,05,30,10,56,18.90
2005,05,30,10,57,18.90
2005,05,30,10,58,18.80
2005,05,30,10,59,18.70
2005,05,30,11,00,18.80
2005,05,30,11,01,18.90
2005,05,30,11,02,18.90
2005,05,30,11,03,18.90
2005,05,30,11,04,18.90
2005,05,30,11,05,18.90
2005,05,30,11,06,18.90
2005,05,30,11,07,18.90
2005,05,30,11,08,18.90
2005,05,30,11,09,18.90
2005,05,30,11,10,18.90
2005,05,30,11,11,18.90
2005,05,30,11,12,18.70
2005,05,30,11,13,18.50
2005,05,30,11,14,18.50
2005,05,30,11,15,18.50
2005,05,30,11,16,18.60
2005,05,30,11,17,18.70
2005,05,30,11,18,18.80
2005,05,30,11,19,18.90
2005,05,30,11,20,18.90
2005,05,30,11,21,18.90
2005,05,30,11,22,18.90
2005,05,30,11,23,18.90
2005,05,30,11,24,18.90
2005,05,30,11,25,18.90
2005,05,30,11,26,19.00
2005,05,30,11,27,19.10
2005,05,30,11,28,19.10
2005,05,30,11,29,19.10
2005,05,30,11,30,19.10
2005,05,30,11,31,19.00
2005,05,30,11,32,18.90
2005,05,30,11,33,18.80
2005,05,30,11,34,18.80
2005,05,30,11,35,18.80
2005,05,30,11,36,18.70
2005,05,30,11,37,18.70
2005,05,30,11,38,18.70
2005,05,30,11,39,18.80
2005,05,30,11,40,18.90
2005,05,30,11,41,19.00
2005,05,30,11,42,18.90
2005,05,30,11,43,18.80
2005,05,30,11,44,18.80
2005,05,30,11,45,18.80
2005,05,30,11,46,18.80
2005,05,30,11,47,18.80
2005,05,30,11,48,18.80
2005,05,30,11,49,18.70
2005,05,30,11,50,18.70
2005,05,30,11,51,18.50
2005,05,30,11,52,18.60
2005,05,30,11,53,18.60
2005,05,30,11,54,18.60
2005,05,30,11,55,18.70
2005,05,30,11,56,18.60
2005,05,30,11,57,18.40
2005,05,30,11,58,18.40
2005,05,30,11,59,18.40
2005,05,30,12,00,18.40
2005,05,30,12,01,18.50
2005,05,30,12,02,18.60
2005,05,30,12,03,18.80
2005,05,30,12,06,18.60
2005,05,30,12,08,18.70
2005,05,30,12,09,18.80
2005,05,30,12,10,18.90
2005,05,30,12,12,18.90
2005,05,30,12,13,19.00
2005,05,30,12,14,19.10
2005,05,30,12,15,19.10
2005,05,30,12,16,19.10
2005,05,30,12,17,19.10
2005,05,30,12,18,19.20
2005,05,30,12,19,19.30
2005,05,30,12,20,19.50
2005,05,30,12,21,19.40
2005,05,30,12,22,19.10
2005,05,30,12,23,18.90
2005,05,30,12,24,18.90
2005,05,30,12,25,18.90
2005,05,30,12,26,18.90
2005,05,30,12,27,18.80
2005,05,30,12,28,18.70
2005,05,30,12,29,18.50
2005,05,30,12,30,18.40
2005,05,30,12,31,18.40
2005,05,30,12,32,18.40
2005,05,30,12,33,18.30
2005,05,30,12,34,18.20
2005,05,30,12,35,18.30
2005,05,30,12,36,18.20
2005,05,30,12,37,18.30
2005,05,30,12,38,18.30
2005,05,30,12,39,18.30
2005,05,30,12,40,18.20
2005,05,30,12,41,18.20
2005,05,30,12,42,18.20
2005,05,30,12,43,18.20
2005,05,30,12,44,18.20
2005,05,30,12,45,18.20
2005,05,30,12,46,18.10
2005,05,30,12,47,18.10
2005,05,30,12,48,18.10
2005,05,30,12,49,18.10
2005,05,30,12,50,18.30
2005,05,30,12,51,18.20
2005,05,30,12,52,18.20
2005,05,30,12,53,18.20
2005,05,30,12,54,18.20
2005,05,30,12,55,18.10
2005,05,30,12,56,18.20
2005,05,30,12,57,18.20
2005,05,30,12,58,18.20
2005,05,30,12,59,18.00
2005,05,30,13,00,18.00
2005,05,30,13,01,18.10
2005,05,30,13,02,18.20
2005,05,30,13,03,18.20
2005,05,30,13,04,18.10
2005,05,30,13,05,18.00
2005,05,30,13,06,17.90
2005,05,30,13,07,17.90
2005,05,30,13,08,17.90
2005,05,30,13,09,17.90
2005,05,30,13,10,17.90
2005,05,30,13,11,17.90
2005,05,30,13,12,17.90
2005,05,30,13,13,17.90
2005,05,30,13,14,17.90
2005,05,30,13,15,17.80
2005,05,30,13,16,17.90
2005,05,30,13,17,17.90
2005,05,30,13,18,17.80
2005,05,30,13,19,17.90
2005,05,30,13,20,17.90
2005,05,30,13,21,17.90
2005,05,30,13,22,17.90
2005,05,30,13,23,17.90
2005,05,30,13,24,17.90
2005,05,30,13,25,17.90
2005,05,30,13,26,17.90
2005,05,30,13,27,17.90
2005,05,30,13,28,17.90
2005,05,30,13,29,17.90
2005,05,30,13,30,17.90
2005,05,30,13,31,17.90
2005,05,30,13,32,17.80
2005,05,30,13,33,17.80
2005,05,30,13,34,17.90
2005,05,30,13,35,18.00
2005,05,30,13,36,18.10
2005,05,30,13,37,18.00
2005,05,30,13,38,17.90
2005,05,30,13,39,17.80
2005,05,30,13,40,17.80
2005,05,30,13,41,17.70
2005,05,30,13,42,17.70
2005,05,30,13,43,17.70
2005,05,30,13,44,17.80
2005,05,30,13,45,17.90
2005,05,30,13,46,17.80
2005,05,30,13,47,17.70
2005,05,30,13,48,17.60
2005,05,30,13,49,17.50
2005,05,30,13,50,17.50
2005,05,30,13,51,17.50
2005,05,30,13,52,17.40
2005,05,30,13,53,17.40
2005,05,30,13,54,17.40
2005,05,30,13,55,17.20
2005,05,30,13,56,17.10
2005,05,30,13,57,17.00
2005,05,30,13,58,17.00
2005,05,30,13,59,17.00
2005,05,30,14,00,17.10
2005,05,30,14,01,17.20
2005,05,30,14,02,17.30
2005,05,30,14,03,17.30
2005,05,30,14,04,17.40
2005,05,30,14,05,17.50
2005,05,30,14,06,17.40
2005,05,30,14,07,17.40
2005,05,30,14,08,17.30
2005,05,30,14,09,17.30
2005,05,30,14,10,17.20
2005,05,30,14,11,17.10
2005,05,30,14,12,17.10
2005,05,30,14,13,17.00
2005,05,30,14,14,17.00
2005,05,30,14,15,17.00
2005,05,30,14,16,17.10
2005,05,30,14,17,17.20
2005,05,30,14,18,17.30
2005,05,30,14,19,17.30
2005,05,30,14,20,17.30
2005,05,30,14,21,17.30
2005,05,30,14,22,17.40
2005,05,30,14,23,17.40
2005,05,30,14,24,17.50
2005,05,30,14,25,17.50
2005,05,30,14,26,17.40
2005,05,30,14,27,17.30
2005,05,30,14,28,17.30
2005,05,30,14,29,17.20
2005,05,30,14,30,17.20
2005,05,30,14,31,17.30
2005,05,30,14,32,17.50
2005,05,30,14,33,17.50
2005,05,30,14,34,17.50
2005,05,30,14,35,17.40
2005,05,30,14,36,17.30
2005,05,30,14,37,17.30
2005,05,30,14,38,17.30
2005,05,30,14,39,17.30
2005,05,30,14,40,17.30
2005,05,30,14,41,17.30
2005,05,30,14,42,17.30
2005,05,30,14,43,17.30
2005,05,30,14,44,17.30
2005,05,30,14,45,17.20
2005,05,30,14,46,17.20
2005,05,30,14,47,17.10
2005,05,30,14,48,17.20
2005,05,30,14,49,17.30
2005,05,30,14,50,17.40
2005,05,30,14,51,17.50
2005,05,30,14,52,17.70
2005,05,30,14,53,17.70
2005,05,30,14,54,17.70
2005,05,30,14,55,17.70
2005,05,30,14,56,17.70
2005,05,30,14,57,17.70
2005,05,30,14,58,17.60
2005,05,30,14,59,17.60
2005,05,30,15,00,17.50
2005,05,30,15,01,17.50
2005,05,30,15,02,17.50
2005,05,30,15,03,17.50
2005,05,30,15,04,17.40
2005,05,30,15,05,17.40
2005,05,30,15,06,17.30
2005,05,30,15,07,17.40
2005,05,30,15,08,17.40
2005,05,30,15,09,17.50
2005,05,30,15,10,17.60
2005,05,30,15,11,17.50
2005,05,30,15,12,17.60
2005,05,30,15,13,17.70
2005,05,30,15,14,17.60
2005,05,30,15,15,17.70
2005,05,30,15,16,17.80
2005,05,30,15,17,17.90
2005,05,30,15,18,17.90
2005,05,30,15,19,17.90
2005,05,30,15,20,17.90
2005,05,30,15,21,17.80
2005,05,30,15,22,17.90
2005,05,30,15,23,17.90
2005,05,30,15,24,17.90
2005,05,30,15,25,17.90
2005,05,30,15,26,18.10
2005,05,30,15,27,18.10
2005,05,30,15,28,18.10
2005,05,30,15,29,18.10
2005,05,30,15,30,18.10
2005,05,30,15,31,18.10
2005,05,30,15,32,18.10
2005,05,30,15,33,18.10
2005,05,30,15,34,18.20
2005,05,30,15,35,18.10
2005,05,30,15,36,17.90
2005,05,30,15,37,17.80
2005,05,30,15,38,17.80
2005,05,30,15,39,17.70
2005,05,30,15,40,17.70
2005,05,30,15,41,17.70
2005,05,30,15,42,17.80
2005,05,30,15,43,17.90
2005,05,30,15,44,17.90
2005,05,30,15,45,18.00
2005,05,30,15,46,18.10
2005,05,30,15,47,18.10
2005,05,30,15,48,17.90
2005,05,30,15,49,17.80
2005,05,30,15,50,17.80
2005,05,30,15,51,17.90
2005,05,30,15,52,17.90
2005,05,30,15,53,17.90
2005,05,30,15,54,18.00
2005,05,30,15,55,18.10
2005,05,30,15,56,18.10
2005,05,30,15,57,18.10
2005,05,30,15,58,18.10
2005,05,30,15,59,18.10
2005,05,30,16,00,18.00
2005,05,30,16,01,18.10
2005,05,30,16,02,18.20
2005,05,30,16,03,18.30
2005,05,30,16,04,18.30
2005,05,30,16,05,18.40
2005,05,30,16,06,18.50
2005,05,30,16,07,18.60
2005,05,30,16,08,18.50
2005,05,30,16,09,18.50
2005,05,30,16,10,18.40
2005,05,30,16,11,18.30
2005,05,30,16,12,18.30
2005,05,30,16,13,18.30
2005,05,30,16,14,18.30
2005,05,30,16,15,18.30
2005,05,30,16,16,18.30
2005,05,30,16,17,18.30
2005,05,30,16,18,18.40
2005,05,30,16,19,18.50
2005,05,30,16,20,18.60
2005,05,30,16,21,18.70
2005,05,30,16,22,18.60
2005,05,30,16,23,18.40
2005,05,30,16,24,18.40
2005,05,30,16,25,18.30
2005,05,30,16,26,18.30
2005,05,30,16,27,18.40
2005,05,30,16,28,18.50
2005,05,30,16,29,18.60
2005,05,30,16,30,18.80
2005,05,30,16,31,18.90
2005,05,30,16,32,18.90
2005,05,30,16,33,18.90
2005,05,30,16,34,18.80
2005,05,30,16,35,18.80
2005,05,30,16,36,18.80
2005,05,30,16,37,18.80
2005,05,30,16,38,18.80
2005,05,30,16,39,18.80
2005,05,30,16,40,18.90
2005,05,30,16,41,18.90
2005,05,30,16,42,18.90
2005,05,30,16,43,18.80
2005,05,30,16,44,18.70
2005,05,30,16,45,18.60
2005,05,30,16,46,18.60
2005,05,30,16,47,18.60
2005,05,30,16,48,18.60
2005,05,30,16,49,18.60
2005,05,30,16,50,18.70
2005,05,30,16,51,18.90
2005,05,30,16,52,18.90
2005,05,30,16,53,19.10
2005,05,30,16,54,19.10
2005,05,30,16,55,19.10
2005,05,30,16,56,19.00
2005,05,30,16,57,18.90
2005,05,30,16,58,18.90
2005,05,30,16,59,18.90
2005,05,30,17,00,18.90
2005,05,30,17,01,18.90
2005,05,30,17,02,18.90
2005,05,30,17,03,18.90
2005,05,30,17,04,18.90
2005,05,30,17,05,18.90
2005,05,30,17,06,18.90
2005,05,30,17,07,18.90
2005,05,30,17,08,18.90
2005,05,30,17,09,18.90
2005,05,30,17,10,18.90
2005,05,30,17,11,18.90
2005,05,30,17,12,18.90
2005,05,30,17,13,18.80
2005,05,30,17,14,18.70
2005,05,30,17,15,18.60
2005,05,30,17,16,18.60
2005,05,30,17,17,18.60
2005,05,30,17,18,18.50
2005,05,30,17,19,18.40
2005,05,30,17,20,18.30
2005,05,30,17,21,18.20
2005,05,30,17,22,18.20
2005,05,30,17,23,18.00
2005,05,30,17,24,17.80
2005,05,30,17,25,17.70
2005,05,30,17,26,17.50
2005,05,30,17,27,17.40
2005,05,30,17,28,17.30
2005,05,30,17,29,17.30
2005,05,30,17,30,17.10
2005,05,30,17,31,17.00
2005,05,30,17,32,16.90
2005,05,30,17,33,16.90
2005,05,30,17,34,16.90
2005,05,30,17,35,16.90
2005,05,30,17,36,16.80